CZ-6A DEB, 64658

Orbit data source: Space-Track

CZ-6A DEB, 64658 is space debris in LEO originally from a launch on Tue, 06 Aug 2024 UTC launched from the Taiyaun Space Center, China (TSC). Debris objects in space refer to the collection of defunct objects orbiting the Earth. Examples of debris include non-operational satellites, rocket bodies, and fragments generated from explosions, collisions, or faulty payload assembly.

Loading next visibility...
Identifier
64658, 2024-140AEY
Orbit
LEO
Country
Flag of CNCN / PRC
Related business
Manufacturer
SAST
Mission
Spacecraft
Bus & Motor
Unknown
Mass
Unknown
Launch date (UTC)
2024-08-06 (2 years ago)
Launch vehicle
Unknown
Launch site
Taiyaun Space Center, China (TSC)
Object type
Payload
Rocket body
Debris
Shape & HBR
Unknown shape, 0.1 m
Radar Cross Section
Small (<0.1 m²)

Expand to show TLE details & history
Last TLE update: 14 hours ago

TLE from 14 hours ago
0 CZ-6A DEB
1 64658U 24140AEY 26171.27861922  .00000981  00000-0  46837-3 0  9993
2 64658  89.0040 275.0534 0062449 181.6939 178.4048 14.17436366 85837
Epoch: 2026-06-20T06:41Z
TLE epoch observation values (Epoch: 2026-06-20T06:41:12.700Z)
Latitude
-0.00007°
Longitude
-93.74505°
Altitude
882.117 km
Speed
7.388 km/s
True Right ascension
18h 20m 12s
True Declination
0° 00' 00"
Sunlit
Object was in full shadow at epoch
Visualization orbit readout
Latitude
Unknown
Longitude
Unknown
Altitude
Unknown
Speed
Unknown
Apparent Right ascension
Unknown
Apparent Declination
Unknown
Sunlit
N/A
Visualization observer readout
Local Sidereal Time
07:19:11
Azimuth
Unknown
Elevation
Unknown
Doppler factor
Unknown
Orbital elements
Apogee altitude
876.011 km
Perigee altitude
785.97 km
Semi-major axis
7,209.128 km
Eccentricity
0.00624
Inclination
89.004°
RAAN
275.0534°
Arg. of periapsis
181.6939°
True anomaly
178.42457°
Mean anomaly
178.4048°
Eccentric anomaly
178.4147°
Mean motion
3.54584 °/min
Orbital period
101.53 mins
BSTAR
0.00046837
Loading maneuver chart data...
Computing Atmospheric mass density...
Loading historical data...
Loading historical data...
Loading historical data...
Loading historical data...
Loading historical data...
Loading historical data...
Loading historical data...

Documentation

Showing up to 5 results
|